Location: �perlecques
(50.8057°N, 2.1521°E)
Time: 08:41:15
(UTC+00:00)

Vanguard 1 Rocket - All Passes

Search period start: 31 July 2021 00:00
Search period end: 10 August 2021 00:00
Orbit: 650 x 4226 km, 34.3° (Epoch: 30 July)

Date Brightness Start Highest point End Pass type
(mag) Time Alt. Az. Time Alt. Az. Time Alt. Az.
31 Jul - 08:06:49 10° S 08:19:23 19° SSE 08:28:30 10° ESE daylight
31 Jul - 10:31:55 10° SW 10:46:11 31° S 10:54:43 10° ESE daylight
31 Jul - 13:01:24 10° WSW 13:11:34 28° SSW 13:17:46 10° SE daylight
31 Jul - 15:33:23 10° SW 15:35:00 11° SW 15:36:30 10° SSW daylight
01 Aug - 06:57:43 10° SSE 07:06:55 14° SE 07:14:31 10° ESE daylight
01 Aug - 09:18:32 10° SSW 09:34:06 29° SSE 09:43:53 10° ESE daylight
01 Aug - 11:47:14 10° WSW 12:00:21 33° S 12:07:57 10° SE daylight
01 Aug - 14:17:47 10° WSW 14:24:41 20° SSW 14:29:29 10° SSE daylight
02 Aug - 08:06:04 10° SSW 08:21:39 25° SSE 08:32:21 10° ESE daylight
02 Aug - 10:33:01 10° SW 10:48:39 35° S 10:57:44 10° ESE daylight
02 Aug - 13:03:23 10° WSW 13:14:00 28° SSW 13:20:27 10° SE daylight
03 Aug - 06:55:14 10° S 07:09:01 19° SE 07:19:36 10° ESE daylight
03 Aug - 09:19:07 10° SW 09:36:27 33° SSE 09:47:02 10° ESE daylight
03 Aug - 11:48:53 10° WSW 12:02:48 35° S 12:10:47 10° SE daylight
03 Aug - 14:20:19 10° WSW 14:26:58 18° SW 14:31:41 10° S daylight
04 Aug - 05:47:46 10° SSE 05:56:25 13° SE 06:03:59 10° ESE daylight
04 Aug - 08:05:59 10° SSW 08:23:52 30° SSE 08:35:45 10° ESE daylight
04 Aug - 10:34:19 10° WSW 10:51:03 38° S 11:00:37 10° ESE daylight
04 Aug - 13:05:28 10° WSW 13:16:20 27° SSW 13:23:00 10° SSE daylight
05 Aug - 06:54:08 10° SSW 07:11:04 25° SSE 07:23:32 10° ESE daylight
05 Aug - 09:19:59 10° SW 09:38:46 38° S 09:50:01 10° ESE daylight
05 Aug - 11:50:38 10° WSW 12:05:10 35° SSW 12:13:29 10° SE daylight
05 Aug - 14:23:04 10° WSW 14:29:06 16° SW 14:33:35 10° S daylight
06 Aug - 05:44:26 10° S 05:58:15 18° SE 06:09:41 10° ESE daylight
06 Aug - 08:06:21 10° SW 08:26:02 35° SSE 08:38:52 10° ESE daylight
06 Aug - 10:35:45 10° WSW 10:53:23 40° S 11:03:25 10° ESE daylight
06 Aug - 13:07:37 10° W 13:18:33 26° SSW 13:25:24 10° SSE daylight
07 Aug - 04:40:14 10° SE 04:45:40 11° SE 04:50:49 10° ESE daylight
07 Aug - 06:53:50 10° SSW 07:13:02 30° SSE 07:26:57 10° E daylight
07 Aug - 09:21:06 10° SW 09:41:01 41° S 09:52:52 10° ESE daylight
07 Aug - 11:52:27 10° WSW 12:07:26 35° SSW 12:16:05 10° SE daylight
07 Aug - 14:26:11 10° WSW 14:31:07 13° SW 14:35:01 10° SSW daylight
08 Aug - 05:42:58 10° S 06:00:01 23° SE 06:13:52 10° E daylight
08 Aug - 08:07:04 10° SW 08:28:09 39° SSE 08:41:48 10° ESE daylight
08 Aug - 10:37:19 10° WSW 10:55:39 41° S 11:06:07 10° SE daylight
08 Aug - 13:09:52 10° W 13:20:39 24° SW 13:27:35 10° SSE daylight
09 Aug - 04:34:53 10° SSE 04:47:15 16° SE 04:58:24 10° ESE daylight
09 Aug - 06:54:03 10° SSW 07:14:58 35° SSE 07:30:03 10° E daylight
09 Aug - 09:22:24 10° WSW 09:43:13 44° S 09:55:37 10° ESE daylight
09 Aug - 11:54:21 10° W 12:09:36 33° SSW 12:18:32 10° SE daylight
09 Aug - 14:30:19 10° WSW 14:32:59 11° SW 14:35:21 10° SW daylight
